Regional Weather Roundup
Issued by NWS Albany, NY

Home | Current Version | Previous Version | Graphics & Text | Print | Product List | Glossary Off
Versions: 1 2 3 4 5 6 7 8 9 10 11 12 13 14 15 16 17 18 19 20 21 22 23 24 25 26 27 28 29 30 31 32 33 34 35 36 37 38 39 40 41 42 43 44 45 46 47 48 49 50

000
ASUS41 KALY 290510
RWRALY

NEW YORK STATE HOURLY WEATHER ROUNDUP
NATIONAL WEATHER SERVICE ALBANY NY
100 AM EDT SAT AUG 29 2015

NOTE: "FAIR" INDICATES FEW OR NO CLOUDS BELOW 12,000 FEET WITH NO
SIGNIFICANT WEATHER AND/OR NO OBSTRUCTIONS TO VISIBILITY.

NYZ032-033-038>043-046>054-057>066-NYZ062>081-290600-
EAST


CITY           SKY/WX    TMP DP  RH WIND       PRES   REMARKS
ALBANY         PTCLDY    61  53  75 SW3       30.20R
GLENS FALLS    CLEAR     55  52  89 CALM      30.19R
POUGHKEEPSIE   CLEAR     60  56  86 CALM      30.19S
NEWBURGH       CLEAR     57  55  94 CALM      30.21F
MONTGOMERY     CLEAR     56  54  93 CALM      30.20S
WHITE PLAINS   CLEAR     62  55  77 NW3       30.20S
ISLIP          CLEAR     65  57  75 CALM      30.18F
NEW YORK CITY  PTCLDY    73  56  54 E3        30.19S
CENTRAL PARK   CLEAR     70  52  52 N3        30.22F
$$

NYZ005>009-017-018-044>046-055-056-290600-
CENTRAL


CITY           SKY/WX    TMP DP  RH WIND       PRES   REMARKS
FULTON         CLEAR     54  51  90 SE3       30.19R
SYRACUSE       MOCLDY    57  55  93 SE3       30.19R
ROME           PTCLDY    55  53  93 SE6       30.21S
ELMIRA         MOCLDY    53  53 100 CALM      30.21S
BINGHAMTON     PTCLDY    57  54  89 S5        30.23S
MONTICELLO     CLEAR     52  50  93 CALM      30.25S
$$

NYZ026>034-041>043-290600-
NORTH


CITY           SKY/WX    TMP DP  RH WIND       PRES   REMARKS
WATERTOWN      PTCLDY    55  52  89 CALM      30.18S
FORT DRUM      NOT AVBL
MASSENA        CLEAR     56  53  90 S6        30.17S
SARANAC LAKE   CLEAR     48  46  93 CALM      30.20R
PLATTSBURGH    CLEAR     55  53  93 CALM      30.15F
$$

NYZ001>004-010>016-019>021-290600-
WEST


CITY           SKY/WX    TMP DP  RH WIND       PRES   REMARKS
NIAGARA FALLS  PTCLDY    60  56  86 S5        30.16S
BUFFALO        MOCLDY    60  55  83 S5        30.17S
DUNKIRK        FAIR      54  52  93 CALM      30.17S
JAMESTOWN      PTCLDY    57  54  88 S5        30.21S
WELLSVILLE     MOCLDY    57  53  86 CALM      30.24F
ROCHESTER      MOCLDY    59  57  93 CALM      30.18F
PENN YAN       PTCLDY    59  57  93 SW3       30.20S
$$

             KEY
       WCI = WIND CHILL INDEX
       VSB = VISIBILITY
       HX  = HEAT INDEX
$$


USA.gov is the U.S. government's official web portal to all federal, state and local government web resources and services.